Location: Newark
(52.8300°N, 8.0000°E)
Time: 05:57:15
(UTC+00:00)

STARLINK-1128 - Pass Details

Date: 29 January 2020
Orbit: 554 x 555 km, 53.0° (Epoch: 24 February)

Event Time Altitude Azimuth Distance (km) Brightness Sun altitude
Rises 17:43:23 0° 286° (WNW) 2,747 8.4 -14.5°
Reaches altitude 10° 17:45:40 10° 281° (W) 1,850 7.4 -14.9°
Maximum altitude 17:49:43 48° 207° (SSW) 741 4.5 -15.5°
Enters shadow 17:53:06 14° 136° (SE) 1,595 5.6 -16.0°
